Radiation Dose at Monitoring Post of Fukushima Daini Nuclear Power Station
Date,Time,MP-1(microSv/h),MP-2(microSv/h),MP-3(microSv/h),MP-4(microSv/h),MP-5(microSv/h),MP-6(microSv/h),MP-7(microSv/h),Wind Direction,Wind Velocity(m/s),Rain
2016/10/14,00:00,0.398,0.240,0.415,0.381,0.365,0.195,0.168,northwest,2.3,No
2016/10/14,00:10,0.400,0.239,0.417,0.383,0.365,0.195,0.169,northwest,3.2,No
2016/10/14,00:20,0.399,0.239,0.414,0.382,0.367,0.195,0.169,north-northwest,2.5,No
2016/10/14,00:30,0.397,0.239,0.417,0.383,0.366,0.195,0.168,northwest,2.5,No
2016/10/14,00:40,0.400,0.239,0.415,0.382,0.365,0.195,0.168,northwest,3.7,No
2016/10/14,00:50,0.398,0.239,0.414,0.382,0.368,0.196,0.168,northwest,4.4,No
2016/10/14,01:00,0.398,0.238,0.416,0.381,0.366,0.196,0.169,northwest,4.1,No
2016/10/14,01:10,0.399,0.240,0.416,0.382,0.365,0.196,0.168,northwest,2.2,No
2016/10/14,01:20,0.398,0.240,0.416,0.381,0.367,0.196,0.168,northwest,2.3,No
2016/10/14,01:30,0.398,0.239,0.416,0.381,0.364,0.196,0.168,northwest,2.2,No
2016/10/14,01:40,0.397,0.240,0.414,0.380,0.364,0.195,0.168,north-northwest,2.2,No
2016/10/14,01:50,0.399,0.240,0.416,0.379,0.366,0.196,0.168,north,3.1,No
2016/10/14,02:00,0.399,0.240,0.414,0.382,0.366,0.195,0.168,north-northwest,5.0,No
2016/10/14,02:10,0.398,0.238,0.415,0.381,0.365,0.195,0.168,north,6.3,No
2016/10/14,02:20,0.399,0.240,0.416,0.380,0.368,0.196,0.168,north,5.6,No
2016/10/14,02:30,0.399,0.240,0.414,0.384,0.364,0.196,0.168,north-northwest,4.5,No
2016/10/14,02:40,0.399,0.239,0.417,0.380,0.367,0.196,0.169,north-northwest,3.5,No
2016/10/14,02:50,0.399,0.240,0.415,0.382,0.365,0.196,0.168,north-northwest,4.2,No
2016/10/14,03:00,0.400,0.240,0.415,0.381,0.364,0.195,0.169,north-northwest,4.5,No
2016/10/14,03:10,0.398,0.240,0.417,0.380,0.365,0.194,0.169,north-northwest,5.0,No
2016/10/14,03:20,0.400,0.239,0.414,0.382,0.367,0.196,0.168,northwest,4.7,No
2016/10/14,03:30,0.400,0.239,0.414,0.382,0.364,0.195,0.168,north-northwest,5.0,No
2016/10/14,03:40,0.399,0.239,0.418,0.381,0.363,0.195,0.168,north-northwest,4.5,No
2016/10/14,03:50,0.398,0.240,0.416,0.381,0.367,0.196,0.168,northwest,3.8,No
2016/10/14,04:00,0.401,0.239,0.416,0.381,0.364,0.196,0.167,northwest,5.0,No
2016/10/14,04:10,0.398,0.240,0.415,0.381,0.366,0.196,0.168,northwest,3.8,No
2016/10/14,04:20,0.398,0.239,0.416,0.382,0.365,0.194,0.168,northwest,4.0,No
2016/10/14,04:30,0.400,0.239,0.415,0.381,0.365,0.196,0.168,west-northwest,4.5,No
2016/10/14,04:40,0.396,0.240,0.416,0.380,0.364,0.194,0.167,northwest,4.2,No
2016/10/14,04:50,0.400,0.240,0.414,0.382,0.365,0.195,0.167,north-northwest,3.1,No
2016/10/14,05:00,0.398,0.239,0.416,0.380,0.365,0.195,0.168,north-northwest,4.4,No
2016/10/14,05:10,0.399,0.239,0.415,0.381,0.365,0.196,0.168,northwest,4.6,No
2016/10/14,05:20,0.401,0.239,0.415,0.381,0.366,0.195,0.168,north-northwest,4.7,No
2016/10/14,05:30,0.398,0.240,0.417,0.380,0.366,0.196,0.168,north-northwest,3.9,No
2016/10/14,05:40,0.398,0.238,0.415,0.381,0.366,0.196,0.169,northwest,5.2,No
2016/10/14,05:50,0.399,0.239,0.415,0.380,0.365,0.195,0.167,north-northwest,4.0,No
2016/10/14,06:00,0.398,0.239,0.417,0.379,0.367,0.196,0.169,north-northwest,1.0,No
2016/10/14,06:10,0.399,0.240,0.414,0.381,0.363,0.195,0.168,northwest,1.1,No
2016/10/14,06:20,0.399,0.239,0.415,0.381,0.366,0.196,0.168,north,1.5,No
2016/10/14,06:30,0.397,0.239,0.416,0.381,0.364,0.195,0.168,north,2.4,No
2016/10/14,06:40,0.398,0.240,0.415,0.382,0.365,0.194,0.168,north-northwest,3.8,No
2016/10/14,06:50,0.399,0.239,0.415,0.380,0.365,0.195,0.168,north-northwest,4.9,No
2016/10/14,07:00,0.399,0.239,0.415,0.382,0.366,0.197,0.168,northwest,4.7,No
2016/10/14,07:10,0.397,0.240,0.412,0.380,0.362,0.196,0.168,northwest,4.2,No
2016/10/14,07:20,0.399,0.240,0.416,0.379,0.364,0.195,0.168,north-northwest,5.0,No
2016/10/14,07:30,0.397,0.240,0.414,0.381,0.365,0.196,0.169,north-northwest,4.2,No
2016/10/14,07:40,0.398,0.240,0.413,0.379,0.365,0.196,0.168,north-northwest,5.0,No
2016/10/14,07:50,0.397,0.239,0.415,0.382,0.365,0.195,0.169,north-northwest,5.0,No
2016/10/14,08:00,0.397,0.239,0.414,0.378,0.365,0.195,0.167,north-northwest,5.3,No
2016/10/14,08:10,0.399,0.240,0.416,0.382,0.365,0.195,0.169,north-northwest,4.8,No
2016/10/14,08:20,0.399,0.239,0.412,0.380,0.365,0.195,0.168,north-northwest,4.5,No
2016/10/14,08:30,0.399,0.238,0.416,0.380,0.366,0.195,0.168,north-northwest,3.5,No
2016/10/14,08:40,0.397,0.239,0.413,0.377,0.365,0.195,0.167,north-northwest,4.7,No
2016/10/14,08:50,0.399,0.238,0.412,0.381,0.368,0.194,0.169,north-northwest,5.0,No
2016/10/14,09:00,0.397,0.240,0.414,0.378,0.363,0.196,0.167,north,4.3,No
2016/10/14,09:10,0.399,0.238,0.412,0.378,0.364,0.195,0.166,north,4.8,No
2016/10/14,09:20,0.396,0.239,0.413,0.380,0.363,0.196,0.169,north-northwest,3.0,No
2016/10/14,09:30,0.399,0.240,0.412,0.377,0.366,0.196,0.170,north-northwest,1.8,No
2016/10/14,09:40,0.396,0.238,0.416,0.377,0.361,0.195,0.167,northwest,1.1,No
2016/10/14,09:50,0.396,0.238,0.414,0.379,0.361,0.195,0.168,north-northwest,1.0,No
2016/10/14,10:00,0.399,0.239,0.415,0.378,0.366,0.195,0.167,east-northeast,1.7,No
2016/10/14,10:10,0.397,0.238,0.413,0.376,0.362,0.194,0.169,east-southeast,1.6,No
2016/10/14,10:20,0.393,0.237,0.414,0.374,0.360,0.194,0.168,east,1.8,No
2016/10/14,10:30,0.394,0.239,0.412,0.378,0.366,0.194,0.167,east-southeast,1.7,No
2016/10/14,10:40,0.398,0.239,0.416,0.382,0.364,0.195,0.169,southeast,0.9,No
2016/10/14,10:50,0.397,0.237,0.413,0.380,0.361,0.195,0.168,east-southeast,1.6,No
2016/10/14,11:00,0.395,0.238,0.415,0.378,0.364,0.196,0.167,southeast,1.8,No
2016/10/14,11:10,0.396,0.240,0.412,0.378,0.364,0.195,0.168,southeast,2.3,No
2016/10/14,11:20,0.400,0.238,0.411,0.383,0.364,0.196,0.169,southeast,2.8,No
2016/10/14,11:30,0.398,0.239,0.414,0.380,0.360,0.195,0.169,southeast,3.1,No
2016/10/14,11:40,0.394,0.239,0.411,0.378,0.364,0.196,0.168,southeast,3.3,No
2016/10/14,11:50,0.395,0.238,0.411,0.378,0.366,0.195,0.168,southeast,3.5,No
2016/10/14,12:00,0.399,0.238,0.415,0.379,0.365,0.196,0.169,southeast,3.6,No
2016/10/14,12:10,0.398,0.241,0.414,0.384,0.362,0.196,0.168,southeast,3.2,No
2016/10/14,12:20,0.395,0.239,0.411,0.382,0.365,0.195,0.168,southeast,3.1,No
2016/10/14,12:30,0.399,0.238,0.408,0.379,0.366,0.197,0.169,east-southeast,3.1,No
2016/10/14,12:40,0.401,0.239,0.413,0.376,0.365,0.197,0.169,east-southeast,2.8,No
2016/10/14,12:50,0.397,0.240,0.415,0.380,0.361,0.195,0.168,southeast,3.1,No
2016/10/14,13:00,0.399,0.239,0.412,0.383,0.363,0.196,0.167,southeast,2.4,No
2016/10/14,13:10,0.399,0.238,0.412,0.381,0.366,0.196,0.168,south-southeast,2.8,No
2016/10/14,13:20,0.397,0.240,0.409,0.377,0.364,0.195,0.169,south-southeast,2.3,No
2016/10/14,13:30,0.402,0.240,0.414,0.377,0.363,0.196,0.169,southeast,1.9,No
2016/10/14,13:40,0.398,0.239,0.416,0.380,0.361,0.196,0.167,south-southeast,1.9,No
2016/10/14,13:50,0.397,0.238,0.412,0.384,0.367,0.195,0.170,south-southeast,1.9,No
2016/10/14,14:00,0.401,0.240,0.410,0.380,0.367,0.196,0.169,south,1.1,No
2016/10/14,14:10,0.396,0.240,0.414,0.381,0.363,0.195,0.169,south,1.9,No
2016/10/14,14:20,0.399,0.240,0.416,0.384,0.361,0.196,0.170,south-southeast,2.4,No
2016/10/14,14:30,0.399,0.239,0.412,0.380,0.367,0.195,0.169,south,2.9,No
2016/10/14,14:40,0.399,0.242,0.417,0.382,0.365,0.196,0.170,south,2.3,No
2016/10/14,14:50,0.400,0.240,0.416,0.382,0.367,0.197,0.169,south,3.1,No
2016/10/14,15:00,0.400,0.242,0.415,0.383,0.367,0.197,0.169,south,2.8,No
2016/10/14,15:10,0.400,0.240,0.418,0.382,0.366,0.196,0.169,south,2.1,No
2016/10/14,15:20,0.399,0.241,0.416,0.382,0.369,0.197,0.169,south-southeast,2.2,No
2016/10/14,15:30,0.399,0.241,0.417,0.383,0.363,0.198,0.169,south-southeast,2.5,No
2016/10/14,15:40,0.399,0.241,0.416,0.382,0.368,0.195,0.169,south,1.9,No
2016/10/14,15:50,0.398,0.240,0.417,0.385,0.367,0.196,0.169,south-southeast,2.7,No
2016/10/14,16:00,0.398,0.242,0.416,0.381,0.367,0.196,0.169,south,2.5,No
2016/10/14,16:10,0.399,0.240,0.417,0.384,0.364,0.196,0.169,south,2.3,No
2016/10/14,16:20,0.402,0.242,0.415,0.381,0.367,0.197,0.169,south,2.2,No
2016/10/14,16:30,0.400,0.240,0.416,0.384,0.367,0.196,0.170,south-southeast,2.5,No
2016/10/14,16:40,0.398,0.241,0.416,0.382,0.367,0.197,0.169,south,2.7,No
2016/10/14,16:50,0.398,0.241,0.416,0.385,0.366,0.196,0.169,south,2.1,No
2016/10/14,17:00,0.400,0.240,0.418,0.382,0.367,0.196,0.170,south,1.7,No
2016/10/14,17:10,0.399,0.242,0.416,0.383,0.366,0.197,0.170,south,2.2,No
2016/10/14,17:20,0.399,0.240,0.417,0.384,0.368,0.197,0.169,south,2.2,No
2016/10/14,17:30,0.399,0.242,0.416,0.383,0.367,0.196,0.169,south,2.2,No
2016/10/14,17:40,0.402,0.241,0.420,0.386,0.366,0.197,0.169,south-southwest,2.2,No
2016/10/14,17:50,0.399,0.240,0.417,0.384,0.368,0.196,0.170,southwest,1.9,No
2016/10/14,18:00,0.399,0.242,0.418,0.384,0.367,0.197,0.169,southwest,1.4,No
2016/10/14,18:10,0.401,0.240,0.416,0.382,0.367,0.197,0.170,south-southwest,4.1,No
2016/10/14,18:20,0.399,0.240,0.417,0.384,0.366,0.196,0.170,south-southwest,5.0,No
2016/10/14,18:30,0.400,0.242,0.417,0.383,0.365,0.196,0.170,south-southwest,4.7,No
2016/10/14,18:40,0.401,0.240,0.415,0.383,0.369,0.196,0.169,south-southwest,4.2,No
2016/10/14,18:50,0.399,0.241,0.419,0.383,0.367,0.197,0.171,south-southwest,6.6,No
2016/10/14,19:00,0.400,0.242,0.416,0.384,0.366,0.196,0.170,south-southwest,6.1,No
2016/10/14,19:10,0.402,0.241,0.417,0.382,0.367,0.197,0.170,south-southwest,6.8,No
2016/10/14,19:20,0.401,0.241,0.418,0.385,0.365,0.197,0.170,south-southwest,6.7,No
2016/10/14,19:30,0.401,0.241,0.416,0.383,0.368,0.197,0.170,south-southwest,7.0,No
2016/10/14,19:40,0.398,0.242,0.418,0.384,0.367,0.197,0.170,south-southwest,6.9,No
2016/10/14,19:50,0.403,0.242,0.416,0.383,0.368,0.198,0.171,south-southwest,6.4,No
2016/10/14,20:00,0.401,0.241,0.415,0.383,0.367,0.197,0.170,south-southwest,6.1,No
2016/10/14,20:10,0.399,0.240,0.420,0.385,0.367,0.198,0.171,south-southwest,6.3,No
2016/10/14,20:20,0.400,0.241,0.416,0.385,0.366,0.198,0.171,south-southwest,6.4,No
2016/10/14,20:30,0.399,0.241,0.417,0.384,0.368,0.197,0.170,southwest,6.0,No
2016/10/14,20:40,0.400,0.241,0.417,0.383,0.367,0.198,0.171,southwest,5.8,No
2016/10/14,20:50,0.403,0.239,0.416,0.382,0.367,0.198,0.170,south-southwest,5.6,No
2016/10/14,21:00,0.401,0.241,0.417,0.385,0.368,0.197,0.172,southwest,5.1,No
2016/10/14,21:10,0.400,0.241,0.419,0.382,0.366,0.197,0.171,southwest,5.5,No
2016/10/14,21:20,0.400,0.242,0.418,0.382,0.365,0.197,0.171,southwest,6.2,No
2016/10/14,21:30,0.400,0.241,0.418,0.386,0.367,0.198,0.170,southwest,6.7,No
2016/10/14,21:40,0.401,0.242,0.417,0.384,0.367,0.198,0.171,southwest,6.6,No
2016/10/14,21:50,0.400,0.241,0.416,0.383,0.368,0.197,0.170,southwest,5.9,No
2016/10/14,22:00,0.401,0.242,0.418,0.383,0.367,0.198,0.171,southwest,5.6,No
2016/10/14,22:10,0.401,0.241,0.417,0.384,0.366,0.197,0.171,southwest,6.0,No
2016/10/14,22:20,0.400,0.240,0.418,0.386,0.366,0.198,0.170,southwest,5.3,No
2016/10/14,22:30,0.401,0.240,0.417,0.384,0.367,0.197,0.170,southwest,2.8,No
2016/10/14,22:40,0.401,0.241,0.417,0.385,0.367,0.197,0.171,west,2.2,No
2016/10/14,22:50,0.400,0.241,0.419,0.384,0.370,0.197,0.171,west-northwest,3.8,No
2016/10/14,23:00,0.400,0.241,0.418,0.383,0.365,0.198,0.169,west-northwest,4.0,No
2016/10/14,23:10,0.401,0.242,0.417,0.386,0.368,0.198,0.171,west,3.6,No
2016/10/14,23:20,0.401,0.241,0.418,0.383,0.366,0.198,0.170,west,3.9,No
2016/10/14,23:30,0.401,0.242,0.418,0.386,0.366,0.198,0.171,west,3.3,No
2016/10/14,23:40,0.400,0.241,0.418,0.384,0.369,0.198,0.171,west,2.9,No
2016/10/14,23:50,0.399,0.241,0.416,0.383,0.366,0.198,0.170,west-northwest,3.1,No
